Das Wetter in  D-61279 Heinzenberg / Taunus





Wetter Minimum- & Maximum-Werte im Dezember 2017

Standort: Heinzenberg / Taunus - Höhe 297 m         8 24' 1" Ost 50 21' 51" Nord
(   3-stündige Aktualisierung    letzte Aktualisierung um 11:35 am 31.12.2017  )


Messgrösse

Minimum

Maximum

Durchschnitt

Temperatur West /
Luftfeuchte West
Anklicken für Monats-Diagramm

-3,6 C

00:19
02.12.2017

68 %

14:39
07.12.2017

11,8 C

10:53
31.12.2017

95 %

10:08
21.12.2017

Temp

2,9 C

Feuchte

87 %

Temperatur Ost /
Luftfeuchte Ost
Anklicken für Monats-Diagramm

-3,4 C

00:24
02.12.2017

--

--
--

11,8 C

10:38
31.12.2017

--

--
--

3,0 C

--

Luftdruck Anklicken für Monats-Diagramm

977,8 hPa

16:13
11.12.2017

1035,3 hPa

11:02
05.12.2017

1014,1 hPa

Taupunkt

-5,0 C

00:19
02.12.2017

9,4 C

05:28
31.12.2017

1,0 C

Windchill
( gefühlte Temperatur )

-18,1 C

13:32
10.12.2017

9,1 C

03:18
31.12.2017

-2,2 C

Windgeschwindigkeit /
Windrichtung
Anklicken für Monats-Diagramm

---

54,5 km/h / W-SW

07:36
14.12.2017

13,2 km/h
W

Helligkeit /
Sonnenschein
Anklicken für Monats-Diagramm
Anklicken für Monats-Diagramm

Sonnenschein:

15:49 Stunden

Max: 4:05 Std am
07.12.2017

48,30 klux

12:44
12.12.2017

5,9 klux

Solarstrahlung Anklicken für Monats-Diagramm

---

330 W/m

12:44
12.12.2017

45 W/m

Regenmenge
    Dezember 2017
Anklicken für Monats-Diagramm

Insgesamt 75,7 l/m

in 148:42 Stunden
an 29 Tagen

9,7 l/m

13:48
11.12.2017

Gesamtmenge

75,7 l/m

Regen-Tage
    Dezember 2017
Anklicken für Monats-Diagramm

>   0 mm/Tag

>   2 mm/Tag

>   5 mm/Tag

> 10 mm/Tag

> 20 mm/Tag

29 Tage     
15 Tage     
5 Tage     
0 Tage     
0 Tage     

Eisige Tage Dezember 2017 / 2016

Tmin ≤ -10C     

0 Tage

/

  1 Tag

Eistage Dezember 2017 / 2016

Tmax <     0C     

2 Tage

/

2 Tage

Frosttage Dezember 2017 / 2016

Tmin ≤     0C     

11 Tage

/

16 Tage

Kalte Tage Dezember 2017 / 2016

Tmax <   10C     

29 Tage

/

29 Tage

Warme Tage Dezember 2017 / 2016

Tmax ≥   20C     

0 Tage

/

0 Tage

Sommertage Dezember 2017 / 2016

Tmax ≥   25C     

0 Tage

/

0 Tage

Heisse Tage Dezember 2017 / 2016

Tmax ≥   30C     

0 Tage

/

0 Tage


Monatsdiagramm Dezember 2017

Die Kurven zeigen den Durchschnittswert des jeweiligen Tages an


Wetter-Monatsübersicht Dezember 2017
Datum
  Temperatur
   Luftdruck
   Wind
  Regen
   Luftfeuchte
   Helligkeit

Sonnen-
schein


Temp.

Min.
Temp.

Max.
Temp.


Luftdruck

Min.
Luftdruck

Max.
Luftdruck

-Geschw.
Haupt-Richtg.

Max.
Wind

Menge /
Dauer


Feuchte

Min.
Feuchte

Max.
Feuchte


Helligkeit

Max.
Helligkeit

1.
Dezember
-1,0 C-3,4 C
23:59
0,5 C
00:03
1013,9 hPa1005,7 hPa
00:03
1021,7 hPa
23:59
0,2 km/h
SO
8,2 km/h
23:44  
0,5 l/m
1:05 Stunden
91 %90 %
13:53
92 %
04:52
4,87 klux9,11 klux
11:18
--- 
2.
Dezember
-1,2 C-3,6 C
00:19
0,5 C
14:49
1025,4 hPa1021,7 hPa
01:19
1027,7 hPa
22:19
0,3 km/h
SO
9,5 km/h
01:29  
---
91 %89 %
20:09
92 %
06:14
6,3 klux15,2 klux
11:34
--- 
3.
Dezember
-1,2 C-2,0 C
08:55
-0,2 C
23:36
1025,2 hPa1023,4 hPa
17:00
1026,6 hPa
02:20
4,5 km/h
W-SW
18,0 km/h
10:45  
2,6 l/m
10:05 Stunden
90 %88 %
05:40
91 %
21:55
4,8 klux11,5 klux
13:10
--- 
4.
Dezember
2,1 C-0,2 C
00:01
3,9 C
22:06
1028,5 hPa1025,4 hPa
02:01
1033,2 hPa
23:27
11,3 km/h
W
25,3 km/h
12:06  
0,9 l/m
10:46 Stunden
93 %91 %
00:01
94 %
16:46
3,3 klux8,3 klux
11:51
--- 
5.
Dezember
3,8 C2,7 C
09:02
4,1 C
11:27
1034,0 hPa1033,2 hPa
00:07
1035,3 hPa
11:02
16,1 km/h
W
29,8 km/h
21:52  
---
1:05 Stunden
89 %83 %
22:43
94 %
00:02
5,03 klux13,40 klux
11:12
--- 
6.
Dezember
4,8 C3,9 C
00:03
6,0 C
13:23
1030,9 hPa1026,9 hPa
23:14
1033,2 hPa
00:03
14,8 km/h
W
24,9 km/h
14:23  
---
81 %78 %
12:38
84 %
05:43
3,9 klux7,5 klux
11:53
15 Min 
7.
Dezember
3,2 C0,2 C
07:44
5,9 C
14:34
1018,0 hPa1007,2 hPa
23:45
1026,9 hPa
00:34
22,0 km/h
W-SW
48,2 km/h
21:19  
6,2 l/m
3:41 Stunden
79 %68 %
14:39
89 %
22:25
17,14 klux40,30 klux
12:24
4:05 Std 
8.
Dezember
2,0 C-1,0 C
22:15
5,6 C
01:25
1009,4 hPa1006,0 hPa
01:25
1012,1 hPa
22:15
18,6 km/h
W
44,2 km/h
08:00  
2,1 l/m
5:25 Stunden
86 %73 %
14:10
92 %
02:00
9,7 klux38,1 klux
13:05
1:45 Std 
9.
Dezember
-0,9 C-1,6 C
08:16
-0,4 C
14:06
1012,5 hPa1010,0 hPa
23:47
1014,1 hPa
10:21
24,1 km/h
W
38,9 km/h
01:21  
---
8:20 Stunden
83 %76 %
20:06
90 %
00:56
8,9 klux34,1 klux
11:26
35 Min 
10.
Dezember
0,1 C-2,2 C
13:47
4,7 C
21:47
991,8 hPa980,2 hPa
21:47
1010,0 hPa
00:12
22,8 km/h
SW
54,3 km/h
22:28  
4,3 l/m
7:28 Stunden
84 %79 %
10:52
88 %
17:32
3,8 klux9,0 klux
14:27
--- 
11.
Dezember
5,2 C1,7 C
06:48
7,5 C
16:13
981,6 hPa977,8 hPa
16:13
985,5 hPa
04:08
17,0 km/h
W-SW
44,9 km/h
20:08  
9,7 l/m
7:26 Stunden
86 %80 %
20:53
92 %
13:58
2,02 klux7,29 klux
14:23
--- 
12.
Dezember
2,0 C0,3 C
05:19
5,5 C
00:04
1004,2 hPa985,3 hPa
00:04
1016,0 hPa
22:19
23,6 km/h
W
45,0 km/h
03:14  
1,1 l/m
4:55 Stunden
83 %77 %
12:29
91 %
05:34
15,03 klux48,30 klux
12:44
3:35 Std 
13.
Dezember
1,4 C0,3 C
00:25
4,0 C
23:56
1006,3 hPa990,7 hPa
23:56
1016,0 hPa
00:25
22,8 km/h
SW
53,9 km/h
23:26  
4,9 l/m
8:10 Stunden
85 %79 %
00:00
91 %
21:55
4,5 klux20,6 klux
11:30
--- 
14.
Dezember
2,9 C1,5 C
15:41
4,3 C
12:56
993,5 hPa990,7 hPa
00:01
997,1 hPa
09:26
25,3 km/h
W-SW
54,5 km/h
07:36  
4,0 l/m
5:55 Stunden
84 %74 %
08:31
90 %
00:31
3,9 klux24,7 klux
10:21
15 Min 
15.
Dezember
1,5 C0,3 C
06:57
2,7 C
11:12
996,0 hPa989,9 hPa
00:52
1001,5 hPa
23:33
6,6 km/h
W
27,0 km/h
05:17  
4,3 l/m
9:49 Stunden
90 %86 %
00:02
92 %
21:17
4,9 klux16,5 klux
11:02
25 Min 
16.
Dezember
0,9 C-0,5 C
03:03
3,1 C
14:33
1009,6 hPa1001,5 hPa
00:03
1017,0 hPa
23:09
7,6 km/h
W
28,5 km/h
20:38  
0,9 l/m
2:00 Stunden
91 %89 %
15:33
93 %
11:08
6,7 klux38,1 klux
13:13
45 Min 
17.
Dezember
1,3 C0,5 C
08:29
3,3 C
14:33
1021,7 hPa1017,0 hPa
00:44
1025,3 hPa
19:49
13,0 km/h
W
23,3 km/h
02:24  
0,2 l/m
2:40 Stunden
90 %86 %
14:39
92 %
00:04
8,5 klux42,8 klux
13:49
49 Min 
18.
Dezember
0,5 C-0,5 C
05:40
1,7 C
14:25
1023,2 hPa1018,1 hPa
07:20
1029,6 hPa
22:46
2,2 km/h
SW
25,2 km/h
02:15  
5,0 l/m
5:30 Stunden
89 %85 %
02:10
91 %
21:25
7,4 klux17,1 klux
14:10
20 Min 
19.
Dezember
1,1 C0,0 C
04:01
2,7 C
23:52
1032,7 hPa1029,5 hPa
00:01
1034,6 hPa
10:36
0,1 km/h
W-SW
7,6 km/h
23:52  
0,9 l/m
6:26 Stunden
92 %91 %
00:01
93 %
21:16
5,5 klux12,6 klux
13:01
--- 
20.
Dezember
3,6 C2,6 C
02:37
4,7 C
23:38
1033,0 hPa1032,1 hPa
14:42
1034,2 hPa
19:02
0,1 km/h
W-SW
5,6 km/h
00:47  
5,5 l/m
11:25 Stunden
93 %93 %
00:02
94 %
17:42
3,5 klux10,7 klux
12:22
--- 
21.
Dezember
6,0 C4,7 C
00:18
6,9 C
20:08
1033,6 hPa1032,8 hPa
17:28
1034,1 hPa
00:18
3,6 km/h
W
15,8 km/h
10:18  
2,3 l/m
3:05 Stunden
94 %94 %
00:03
95 %
10:08
2,3 klux5,8 klux
12:48
--- 
22.
Dezember
7,0 C5,6 C
23:45
7,7 C
13:49
1033,1 hPa1031,7 hPa
13:29
1035,0 hPa
23:45
0,1 km/h
SW
6,4 km/h
01:49  
2,4 l/m
7:00 Stunden
94 %94 %
00:04
95 %
17:09
3,12 klux11,10 klux
13:24
--- 
23.
Dezember
6,9 C5,2 C
01:30
7,5 C
17:25
1032,4 hPa1029,6 hPa
23:41
1035,1 hPa
01:30
11,2 km/h
W
27,7 km/h
10:00  
0,2 l/m
1:00 Stunden
92 %87 %
22:20
95 %
03:10
3,3 klux9,4 klux
12:45
--- 
24.
Dezember
7,0 C6,5 C
20:51
7,4 C
13:21
1026,4 hPa1023,5 hPa
22:27
1029,6 hPa
00:26
16,7 km/h
W
30,5 km/h
23:12  
---
5 Minuten
88 %86 %
00:16
90 %
09:46
2,6 klux5,7 klux
13:06
--- 
25.
Dezember
4,7 C2,7 C
21:22
6,5 C
00:02
1018,1 hPa1010,5 hPa
23:48
1023,5 hPa
00:17
11,9 km/h
W-SW
27,9 km/h
00:42  
---
5 Minuten
85 %83 %
12:42
88 %
05:07
4,67 klux10,70 klux
12:42
--- 
26.
Dezember
4,3 C2,3 C
01:13
6,8 C
11:23
1003,7 hPa998,0 hPa
23:59
1010,5 hPa
00:13
17,7 km/h
SW
42,7 km/h
06:48  
2,4 l/m
2:55 Stunden
85 %81 %
23:49
90 %
12:13
4,9 klux19,7 klux
11:18
--- 
27.
Dezember
4,0 C1,6 C
08:44
5,4 C
12:19
987,9 hPa984,3 hPa
16:59
998,0 hPa
00:24
10,4 km/h
O-SO
29,3 km/h
10:59  
0,9 l/m
2:34 Stunden
83 %74 %
03:44
88 %
10:19
5,9 klux18,6 klux
11:44
--- 
28.
Dezember
1,4 C-0,7 C
20:05
4,1 C
00:15
997,8 hPa987,6 hPa
00:15
1006,8 hPa
22:46
15,9 km/h
W
26,1 km/h
06:00  
1,2 l/m
4:40 Stunden
86 %79 %
16:05
91 %
02:10
7,4 klux19,5 klux
12:30
55 Min 
29.
Dezember
0,4 C-0,9 C
06:06
1,4 C
12:21
1005,7 hPa999,4 hPa
20:41
1009,9 hPa
08:16
16,9 km/h
W-SW
38,7 km/h
16:46  
0,5 l/m
4:51 Stunden
82 %79 %
12:31
90 %
23:52
8,2 klux41,8 klux
12:16
1:15 Std 
30.
Dezember
5,8 C1,4 C
00:02
10,8 C
21:27
1002,4 hPa997,7 hPa
12:47
1005,5 hPa
02:27
22,3 km/h
W-SW
44,7 km/h
12:02  
9,0 l/m
5:56 Stunden
86 %78 %
19:02
91 %
11:57
3,6 klux10,6 klux
11:32
--- 
31.
Dezember
10,8 C9,1 C
02:53
11,8 C
10:53
1004,2 hPa1000,2 hPa
21:08
1006,6 hPa
02:53
30,3 km/h
W-SW
49,5 km/h
07:03  
4,0 l/m
4:20 Stunden
81 %71 %
21:38
92 %
04:13
7,0 klux31,7 klux
10:28
50 Min 



Dezember
2017

Temperatur

  

Luftdruck

  

Wind

  

Regen

  

Luftfeuchte

  

Helligkeit

Sonnen-
schein

Min

Max

Min

Max

Max

Max

Min

Max

Max

Max

2,9 C

-3,6 C

00:19 Uhr
02.12.2017

11,8 C

10:53 Uhr
31.12.2017

1014,1 hPa

977,8 hPa

16:13 Uhr
11.12.2017

1035,3 hPa

11:02 Uhr
05.12.2017

13,2 km/h

W

54,5 km/h

07:36 Uhr
14.12.2017

9,7 l/m

7:26 Stunden
11.12.2017

87 %

68 %

14:39 Uhr
07.12.2017

95 %

10:08 Uhr
21.12.2017

5,9 klux

48,30 klux

12:44 Uhr
12.12.2017

4:05 Std

am
07.12.2017

Gesamt

Gesamt

75,7 l/m

29 Tage
148:42 h

15:49 Std


Wetter-Diagramme Dezember 2017     Heinzenberg / Taunus   
TemperaturLuftfeuchte
SolarstrahlungLuftdruck
HelligkeitSonnenschein
RegenmengeRegendauer
Wind-GeschwindigkeitWind-Richtung